Погода в Будагово

Россия / Иркутская область     54°37′36″N   100°07′49″E
темп.,
°C
ветер,
м/с
пор.,
м/с
влажн.,
%
обл.,
%
осадки,
мм/ч
давл.,
гПа
погр.,
м
29 ноября, пн
пн2923:00−7з41291100 0.4 10301110
02:00−7з41291100 0.6 1030889
05:00−5з51376100 0.2 10291230
08:00−6з51486100 0.3 10301314
11:00−5з61479100 0.1 10311262
14:00−5зсз51373100 0.1 10311453
17:00−6зсз51378100 0.0 10311207
20:00−6зсз41386100 0.0 10321050
30 ноября, вт
вт3023:00−6з399389 0.2 1032506
02:00−7юз1597100 0.6 1031146
05:00−7юз2691100 0.1 1029160
08:00−6юз3796100 0.6 1029236
11:00−5юз2788100 0.2 1028208
14:00−2юз2676100 0.2 1025222
17:00−5ююз2589100 0.0 102584
20:00−6юз2784100 0.0 102499
1 декабря, ср
ср123:00−4зюз31079100 0.0 1023199
02:00−6зюз398097 0.0 1023141
05:00−6зюз31077100 0.0 1022171
08:00−5зюз31470100 0.0 1021326
11:00−2з61960100 0.0 10201341
14:00−1зсз72157100 0.0 10211724
17:00−4зсз72081100 0.1 10241445
20:00−5зсз51692100 0.8 10261215
2 декабря, чт
чт223:00−6зсз41591100 0.4 10271146
02:00−6зсз31186100 0.5 1027678
05:00−8з1294100 0.0 102745
08:00−8юз1194100 0.0 102614
11:00−6юз2581100 0.0 1025120
14:00−2зюз2967100 0.0 1022405
17:00−4юз2481100 0.0 102365
20:00−5зюз2878100 0.0 1023115
3 декабря, пт
пт323:00−7з2287100 0.0 102427
02:00−8зюз228989 0.0 102420
05:00−9юз2189100 0.0 102416
08:00−9юз238598 0.0 102344
11:00−6ююз257541 0.0 102286
14:00−1ююз256935 0.0 1019133
17:00−7ююз2289100 0.0 101914
20:00−10ююз228996 0.0 101820